DW4782 Asprovalta GR current weather conditions

sailwx.info

Wind from 087 at 0 knots gusting 2

Air temperature 11.7° C
Dewpoint 8.7° C

Last reported at 2015-Apr-19 16:50 UTC.
Time now 2015-Apr-19 17:38 UTC

Location: N 40°43' E 023°43'.
View on Google Maps.

See reports from other nearby stations

  
Tides and Currents Weather Stations Pressure Air Temp Water Temp Dewpoint Dewpoint Depression Visibility Wind Speed Wind Dir Waves Ship Positions
date/time (UTC)wind fromknots sea level pressurealtimeterstation pressurevisibilityair tempwater tempwave heightnotes
2015-Apr-19 16:50 087 0 gusting 2 11.7
2015-Apr-19 16:40 114 1 gusting 2 11.7
2015-Apr-19 16:30 058 1 gusting 3 11.7
2015-Apr-19 16:20 064 1 gusting 5 12.2
2015-Apr-19 16:10 074 1 gusting 2 12.2
2015-Apr-19 16:00 073 1 gusting 5 12.2
2015-Apr-19 15:50 070 0 gusting 4 12.2
2015-Apr-19 15:40 070 0 gusting 2 12.8
2015-Apr-19 15:30 092 1 gusting 5 12.8
2015-Apr-19 15:20 088 1 gusting 2 13.3
2015-Apr-19 15:10 088 1 gusting 4 13.3
2015-Apr-19 15:00 088 1 gusting 6 13.3
2015-Apr-19 14:50 138 1 gusting 2 13.3
2015-Apr-19 14:40 123 1 gusting 3 13.3
2015-Apr-19 14:30 142 2 gusting 3 13.3
2015-Apr-19 14:20 102 0 gusting 5 13.3
2015-Apr-19 14:10 120 1 gusting 6 13.9
2015-Apr-19 14:00 103 1 gusting 4 13.9
2015-Apr-19 13:50 133 2 gusting 4 13.9
2015-Apr-19 13:40 134 2 gusting 7 13.9
2015-Apr-19 13:30 131 3 gusting 8 13.9
2015-Apr-19 13:20 147 4 gusting 12 13.9
2015-Apr-19 13:10 151 4 gusting 8 14.4
2015-Apr-19 13:00 156 4 gusting 10 14.4
2015-Apr-19 12:50 153 4 gusting 10 14.4
2015-Apr-19 12:40 143 3 gusting 7 14.4
2015-Apr-19 12:30 146 4 gusting 11 14.4
2015-Apr-19 12:20 156 5 gusting 8 14.4
2015-Apr-19 12:10 143 4 gusting 6 15.0
2015-Apr-19 12:00 125 4 gusting 7 15.0
2015-Apr-19 11:50 126 4 gusting 10 15.6
2015-Apr-19 11:40 135 5 gusting 10 15.6
2015-Apr-19 11:20 130 5 gusting 12 16.7
2015-Apr-19 11:10 166 2 gusting 8 17.8
2015-Apr-19 11:00 355 2 gusting 6 17.8
2015-Apr-19 10:50 041 1 gusting 4 18.3
2015-Apr-19 10:40 065 2 gusting 7 18.3
2015-Apr-19 10:30 027 1 gusting 5 18.9
2015-Apr-19 10:20 040 1 gusting 4 18.9
2015-Apr-19 10:10 068 2 gusting 3 18.9
2015-Apr-19 10:00 050 1 gusting 3 18.9
2015-Apr-19 09:50 055 1 gusting 4 18.9
2015-Apr-19 09:40 057 1 gusting 4 18.9
2015-Apr-19 09:30 041 0 gusting 3 18.9
2015-Apr-19 09:20 106 0 gusting 2 19.4
2015-Apr-19 09:10 043 0 gusting 2 19.4
2015-Apr-19 09:00 126 1 gusting 2 19.4
2015-Apr-19 08:50 109 0 gusting 3 20.0
2015-Apr-19 08:40 089 0 gusting 4 20.0
2015-Apr-19 08:30 120 1 gusting 4 20.0
2015-Apr-19 08:20 083 2 gusting 6 20.0
2015-Apr-19 08:10 073 1 gusting 4 20.0
2015-Apr-19 08:00 041 0 gusting 5 20.0
2015-Apr-19 07:50 151 1 gusting 2 19.4
2015-Apr-19 07:40 080 2 gusting 6 20.0
2015-Apr-19 07:30 103 3 gusting 7 19.4
2015-Apr-19 07:20 079 0 gusting 6 19.4
2015-Apr-19 07:10 266 2 gusting 2 18.9
2015-Apr-19 07:00 352 1 gusting 5 18.9
2015-Apr-19 06:50 014 0 gusting 2 18.3
2015-Apr-19 06:40 017 2 gusting 4 17.8
2015-Apr-19 06:30 007 17.2
2015-Apr-19 06:20 208 0 gusting 5 16.7
2015-Apr-19 06:10 193 2 gusting 4 16.1
2015-Apr-19 06:00 182 0 gusting 3 15.6
2015-Apr-19 05:50 226 1 gusting 3 15.0
2015-Apr-19 05:40 218 0 gusting 2 14.4
2015-Apr-19 05:30 222 14.4
2015-Apr-19 05:20 219 0 gusting 1 14.4
2015-Apr-19 05:10 330 0 gusting 0 13.9
2015-Apr-19 05:00 349 2 gusting 4 13.9
2015-Apr-19 04:50 348 1 gusting 2 13.3
2015-Apr-19 04:40 016 0 gusting 3 12.8
2015-Apr-19 04:30 330 2 gusting 4 12.8
2015-Apr-19 04:20 344 13.3
2015-Apr-19 04:10 354 13.3
2015-Apr-19 04:00 352 0 gusting 2 13.3
2015-Apr-19 03:50 026 0 gusting 1 13.3
2015-Apr-19 03:40 152 1 gusting 2 13.3
2015-Apr-19 03:30 303 2 gusting 6 12.8
2015-Apr-19 03:20 190 0 gusting 1 12.8
2015-Apr-19 03:10 201 0 gusting 0 13.3
2015-Apr-19 03:00 12.8
2015-Apr-19 02:50 290 1 gusting 8 11.7
2015-Apr-19 02:40 338 2 gusting 4 11.1
2015-Apr-19 02:30 329 0 gusting 1 11.1
2015-Apr-19 02:20 234 0 gusting 4 10.6
2015-Apr-19 02:10 281 11.1
2015-Apr-19 02:00 359 11.1
2015-Apr-19 01:50 261 11.1
2015-Apr-19 01:40 248 0 gusting 1 11.1
2015-Apr-19 01:30 11.1
2015-Apr-19 01:20 11.1
2015-Apr-19 01:10 258 0 gusting 2 11.1
2015-Apr-19 01:00 257 11.1
2015-Apr-19 00:50 276 11.1
2015-Apr-19 00:40 278 0 gusting 0 11.7
2015-Apr-19 00:30 278 11.7
2015-Apr-19 00:20 11.7
2015-Apr-19 00:10 295 11.7
2015-Apr-19 00:00 288 12.2
2015-Apr-18 23:50 297 12.2
2015-Apr-18 23:40 12.2
2015-Apr-18 23:30 12.8
2015-Apr-18 23:20 297 12.8
2015-Apr-18 23:10 290 13.3
2015-Apr-18 23:00 229 1 gusting 1 13.3
2015-Apr-18 22:50 297 0 gusting 0 13.3
2015-Apr-18 22:40 246 0 gusting 3 13.3
2015-Apr-18 22:30 264 0 gusting 1 13.3
2015-Apr-18 22:20 269 1 gusting 2 13.3
2015-Apr-18 22:10 252 1 gusting 4 13.3
2015-Apr-18 22:00 251 0 gusting 2 13.3
2015-Apr-18 21:50 295 13.3
2015-Apr-18 21:40 263 0 gusting 2 13.3
2015-Apr-18 21:30 279 1 gusting 2 13.3
2015-Apr-18 21:20 269 0 gusting 2 13.3
2015-Apr-18 21:10 13.3
2015-Apr-18 21:00 254 0 gusting 2 13.3
2015-Apr-18 20:50 265 1 gusting 3 13.3
2015-Apr-18 20:40 253 1 gusting 4 12.8
2015-Apr-18 20:30 260 0 gusting 3 12.8
2015-Apr-18 20:20 12.8
2015-Apr-18 20:10 263 12.8
2015-Apr-18 20:00 270 13.3
2015-Apr-18 19:50 13.3
2015-Apr-18 19:40 269 13.3
2015-Apr-18 19:30 270 13.9
2015-Apr-18 19:20 13.9
2015-Apr-18 19:10 269 13.9
2015-Apr-18 19:00 280 13.9
2015-Apr-18 18:50 270 13.9
2015-Apr-18 18:40 14.4
2015-Apr-18 18:30 15.0
2015-Apr-18 18:20 15.0
2015-Apr-18 18:10 15.6
2015-Apr-18 18:00 16.1
2015-Apr-18 17:50 16.1
2015-Apr-18 17:40 16.7
2015-Apr-18 17:30 17.2
2015-Apr-18 17:20 17.8
2015-Apr-18 17:10 18.3
2015-Apr-18 17:00 18.9
2015-Apr-18 16:50 19.4
2015-Apr-18 16:40 19.4
2015-Apr-18 16:30 20.0
2015-Apr-18 16:20 089 20.0
2015-Apr-18 16:10 097 20.6
2015-Apr-18 16:00 098 20.6
2015-Apr-18 15:50 049 20.6
2015-Apr-18 15:40 110 0 gusting 2 20.6
2015-Apr-18 15:30 074 0 gusting 1 20.6
2015-Apr-18 15:20 112 0 gusting 4 20.6
2015-Apr-18 15:10 074 1 gusting 3 20.6
2015-Apr-18 15:00 112 1 gusting 2 21.1
2015-Apr-18 14:50 107 1 gusting 4 21.7
2015-Apr-18 14:40 094 2 gusting 6 21.7
2015-Apr-18 14:30 118 1 gusting 4 22.2
2015-Apr-18 14:20 081 22.2
2015-Apr-18 14:10 060 22.2
2015-Apr-18 14:00 114 0 gusting 2 21.7
2015-Apr-18 13:50 080 1 gusting 2 21.7
2015-Apr-18 13:40 117 1 gusting 4 21.7
2015-Apr-18 13:30 093 1 gusting 4 21.7
2015-Apr-18 13:20 100 0 gusting 4 21.1
2015-Apr-18 13:10 096 1 gusting 4 21.1
2015-Apr-18 13:00 071 1 gusting 5 21.1
2015-Apr-18 12:50 094 1 gusting 1 20.6
2015-Apr-18 12:40 086 1 gusting 5 20.6
2015-Apr-18 12:30 086 1 gusting 4 20.6
2015-Apr-18 12:20 090 1 gusting 5 20.6
2015-Apr-18 12:10 095 1 gusting 5 21.1
2015-Apr-18 12:00 102 1 gusting 5 20.6
2015-Apr-18 11:50 073 1 gusting 5 20.6
2015-Apr-18 11:40 071 2 gusting 4 20.6
2015-Apr-18 11:20 081 2 gusting 6 20.6
2015-Apr-18 11:10 107 2 gusting 6 20.6
2015-Apr-18 11:00 078 1 gusting 4 20.6
2015-Apr-18 10:50 079 1 gusting 2 20.6
2015-Apr-18 10:40 130 1 gusting 5 20.6
2015-Apr-18 10:30 123 1 gusting 4 20.6
2015-Apr-18 10:20 094 1 gusting 4 20.0
2015-Apr-18 10:10 063 0 gusting 2 20.0
2015-Apr-18 10:00 053 2 gusting 4 19.4
2015-Apr-18 09:50 094 2 gusting 6 19.4
2015-Apr-18 09:40 087 2 gusting 4 19.4
2015-Apr-18 09:30 137 1 gusting 6 19.4
2015-Apr-18 09:20 136 1 gusting 2 18.9
2015-Apr-18 09:10 086 2 gusting 6 18.9
2015-Apr-18 09:00 125 1 gusting 4 18.9
2015-Apr-18 08:50 083 1 gusting 4 18.9
2015-Apr-18 08:40 116 1 gusting 4 18.3
2015-Apr-18 08:30 101 2 gusting 6 18.9
2015-Apr-18 08:20 104 1 gusting 5 18.9
2015-Apr-18 08:10 130 1 gusting 4 18.3
2015-Apr-18 08:00 100 1 gusting 4 18.3
2015-Apr-18 07:50 105 1 gusting 4 18.3
2015-Apr-18 07:40 111 1 gusting 4 18.3
2015-Apr-18 07:30 098 1 gusting 3 18.9
2015-Apr-18 07:20 124 1 gusting 6 18.3
2015-Apr-18 07:10 095 1 gusting 5 18.3
2015-Apr-18 07:00 112 0 gusting 2 17.8
2015-Apr-18 06:50 138 0 gusting 1 17.2
2015-Apr-18 06:40 140 16.7
2015-Apr-18 06:30 115 16.1
2015-Apr-18 06:20 106 15.6
2015-Apr-18 06:10 150 15.0
2015-Apr-18 06:00 14.4
2015-Apr-18 05:50 14.4
2015-Apr-18 05:40 13.3
2015-Apr-18 05:30 13.3
2015-Apr-18 05:20 12.8
2015-Apr-18 05:10 12.2
2015-Apr-18 05:00 11.7
2015-Apr-18 04:50 11.7
2015-Apr-18 04:40 11.7
2015-Apr-18 04:30 11.1
2015-Apr-18 04:20 11.1
2015-Apr-18 04:10 270 11.1
2015-Apr-18 04:00 11.1
2015-Apr-18 03:50 266 11.1
2015-Apr-18 03:40 273 11.1
2015-Apr-18 03:30 279 11.1
2015-Apr-18 03:20 278 11.1
2015-Apr-18 03:10 277 11.1
2015-Apr-18 03:00 11.7
2015-Apr-18 02:50 11.7
2015-Apr-18 02:40 11.7
2015-Apr-18 02:30 283 11.7
2015-Apr-18 02:20 11.7
2015-Apr-18 02:10 332 11.7
2015-Apr-18 02:00 334 11.7
2015-Apr-18 01:50 336 11.7
2015-Apr-18 01:40 12.2
2015-Apr-18 01:30 12.2
2015-Apr-18 01:20 255 12.2
2015-Apr-18 01:10 255 12.2
2015-Apr-18 01:00 243 0 gusting 3 12.2
2015-Apr-18 00:50 266 12.2
2015-Apr-18 00:40 267 12.2
2015-Apr-18 00:30 266 0 gusting 1 12.2
2015-Apr-18 00:20 259 11.7
2015-Apr-18 00:10 280 11.7
2015-Apr-18 00:00 11.7
2015-Apr-17 23:50 12.2
2015-Apr-17 23:40 12.2
2015-Apr-17 23:30 280 12.2
2015-Apr-17 23:20 280 12.2
2015-Apr-17 23:10 280 12.2
2015-Apr-17 23:00 267 12.2
2015-Apr-17 22:50 12.2
2015-Apr-17 22:40 277 12.2
2015-Apr-17 22:30 289 12.8
2015-Apr-17 22:20 12.8
2015-Apr-17 22:10 291 0 gusting 0 12.8
2015-Apr-17 22:00 270 12.8
2015-Apr-17 21:50 12.8
2015-Apr-17 21:40 269 12.8
2015-Apr-17 21:30 261 12.8
2015-Apr-17 21:20 260 0 gusting 0 12.8
2015-Apr-17 21:10 268 12.8
2015-Apr-17 21:00 267 13.3
2015-Apr-17 20:50 267 13.3
2015-Apr-17 20:40 258 0 gusting 2 13.3
2015-Apr-17 20:30 317 13.3
2015-Apr-17 20:20 316 13.9
2015-Apr-17 20:10 13.9
2015-Apr-17 20:00 317 13.9
2015-Apr-17 19:50 317 14.4
2015-Apr-17 19:40 14.4
2015-Apr-17 19:30 319 14.4
2015-Apr-17 19:20 317 13.9
2015-Apr-17 19:10 329 0 gusting 2 13.9
2015-Apr-17 19:00 319 0 gusting 2 13.9
2015-Apr-17 18:50 324 0 gusting 2 13.9
2015-Apr-17 18:40 276 13.9
2015-Apr-17 18:30 13.9
2015-Apr-17 18:20 14.4
2015-Apr-17 18:10 14.4
2015-Apr-17 18:00 267 15.0
2015-Apr-17 17:50 040 15.6
2015-Apr-17 17:40 15.6
2015-Apr-17 17:30 16.1
2015-Apr-17 17:20 16.7
2015-Apr-17 17:10 17.2
2015-Apr-17 17:00 17.2